Wind_Speed
14 13 13 13 13 13 13 12 11 10 10 10 10 10 10 10 9 10 10 10 12 13 13 13 14 15 15 16 16 15 15 15 15 15 14 14 13 12 12 12 12 12 11 11
14 14 14 14 13 13 13 13 12 11 10 10 11 12 12 11 11 10 10 10 11 11 11 12 12 14 15 15 16 16 16 16 16 16 15 15 14 13 13 12 12 12 12 13
15 14 14 14 13 13 12 13 13 12 11 11 11 11 12 12 11 11 11 11 11 12 12 12 12 13 14 14 16 16 16 16 16 16 16 15 16 15 14 13 13 14 13 14
16 15 16 13 12 13 13 12 12 12 11 12 12 12 12 12 12 11 12 12 12 13 13 13 13 13 14 14 15 16 17 17 17 17 16 16 16 15 14 14 14 15 15 15
17 17 15 14 13 13 13 13 13 13 13 13 12 13 13 12 12 12 13 12 13 13 13 14 14 14 15 15 15 16 16 17 17 17 16 16 16 16 16 16 16 16 16 16
17 17 16 14 13 13 13 13 13 13 13 12 12 13 13 12 12 12 12 13 13 13 14 14 14 15 15 15 15 16 16 16 17 18 18 18 18 17 17 17 17 16 17 17
18 17 15 14 14 14 13 12 12 13 13 13 12 12 12 12 12 11 12 12 13 13 14 14 15 15 15 16 16 16 17 17 18 19 19 19 18 18 17 17 18 17 18 17
18 18 16 14 14 14 13 13 14 13 13 14 13 13 13 12 12 12 12 13 13 14 14 15 16 16 16 16 17 17 17 18 18 19 19 19 19 18 18 18 18 18 18 18
17 16 15 15 15 14 13 14 14 14 14 14 14 14 13 13 13 13 13 14 14 14 15 15 15 15 16 17 17 18 18 18 18 19 19 19 19 18 18 19 19 19 19 19
19 17 16 16 16 15 14 15 15 15 15 14 15 15 15 14 14 14 14 15 15 15 16 16 16 16 16 17 18 19 19 19 20 20 19 19 19 20 19 19 19 19 20 20
20 18 17 17 17 16 16 16 15 15 15 14 15 16 16 15 15 15 15 16 17 16 16 17 17 16 17 17 18 19 20 20 21 21 21 21 20 20 21 21 20 20 21 21
20 19 19 18 18 17 16 16 15 16 15 15 15 15 15 15 16 16 16 17 17 17 17 17 17 17 18 18 19 19 19 20 21 22 22 23 22 22 22 22 22 23 22 22
22 21 20 19 19 18 17 17 17 16 16 15 16 16 16 16 17 17 17 18 18 18 18 18 17 17 18 19 20 20 20 21 21 22 22 23 23 23 23 23 23 23 23 23
24 23 22 21 20 19 18 17 17 17 17 17 17 17 16 16 17 17 17 18 18 18 17 18 18 18 18 18 19 19 20 20 20 20 21 22 23 23 23 23 24 24 24 24
25 25 24 23 22 20 19 19 19 19 18 18 18 17 17 16 17 17 17 18 18 18 18 18 18 18 18 18 18 19 20 20 21 22 22 22 22 23 23 24 24 25 25 25
25 26 25 24 22 21 20 20 20 19 20 19 19 18 17 17 17 18 18 18 18 18 19 19 19 19 19 19 19 20 21 21 22 22 23 24 24 24 24 25 25 25 25 26
27 26 25 24 23 22 22 21 21 21 21 21 21 20 19 18 18 18 19 19 19 19 19 19 20 20 20 20 21 21 22 23 23 23 24 24 25 25 25 25 25 25 26 27
26 26 25 24 24 23 23 23 23 23 23 22 22 22 21 20 19 19 19 19 19 19 20 20 20 20 20 21 21 21 22 22 22 23 24 25 25 26 25 25 26 27 27 28
27 27 27 26 26 25 24 24 24 24 24 24 24 24 23 22 21 21 20 20 19 20 20 20 20 21 21 21 21 21 22 23 23 24 24 25 25 26 26 26 27 27 28 29
28 27 27 27 27 26 25 24 24 25 25 26 25 24 24 24 23 22 21 21 21 21 21 21 21 22 22 22 23 23 24 24 24 25 26 26 26 26 26 27 28 29 30 31
27 26 26 26 26 26 25 25 25 25 25 25 25 24 24 24 24 23 23 22 22 22 22 22 23 23 23 24 24 24 24 25 25 26 26 27 27 27 28 29 29 30 31 32
28 27 26 26 26 26 26 25 25 24 25 24 24 24 24 24 25 25 24 24 23 23 24 24 24 24 25 25 25 24 25 25 26 26 26 27 27 28 28 29 30 32 33 34
28 27 26 26 25 25 25 25 25 25 24 24 24 24 24 24 24 25 26 25 25 25 25 25 25 25 24 24 25 25 26 26 26 27 27 27 28 28 29 31 32 33 34 34
27 27 27 27 26 26 25 26 26 26 25 25 25 24 24 24 24 25 26 26 26 26 26 26 26 25 25 25 26 26 27 27 27 28 28 29 30 30 31 32 33 34 34 34
27 26 26 27 27 27 26 26 26 26 26 26 26 25 25 26 26 26 26 26 26 26 26 26 26 27 27 27 27 27 28 28 28 29 29 30 31 31 32 32 33 33 34 34
27 27 26 26 27 27 27 26 26 26 26 26 26 27 27 27 27 26 26 26 26 26 26 27 27 28 28 28 28 28 29 29 30 30 30 31 32 32 33 33 34 34 35 35
28 28 28 28 28 28 28 28 27 27 28 27 27 28 28 28 28 28 27 27 26 27 27 27 27 27 28 28 28 29 30 30 31 31 31 32 32 33 34 34 35 35 36 36
Wind_Direction
240 240 239 238 240 242 244 244 245 244 245 241 238 236 234 233 232 227 219 219 220 220 217 218 221 220 221 222 224 227 231 233 232 233 234 238 244 248 250 253 257 257 258 263
243 243 239 239 239 241 242 242 241 241 243 243 245 239 236 233 233 230 222 220 221 221 219 221 222 222 222 225 229 230 233 234 233 234 235 239 243 249 251 251 256 259 261 266
243 241 240 239 240 242 243 244 244 244 246 246 244 237 234 231 229 228 224 225 225 224 224 225 224 224 225 227 230 231 233 233 233 234 238 243 247 248 249 251 255 257 261 266
238 237 237 238 240 243 243 244 245 242 241 243 244 241 237 233 231 228 229 230 228 228 227 226 226 227 229 233 236 235 236 235 235 236 239 244 246 247 249 253 257 263 262 265
237 238 237 233 235 239 244 245 247 244 243 244 244 239 238 236 230 231 231 233 234 232 229 230 231 231 232 236 237 239 239 236 235 238 241 244 245 247 251 255 259 262 263 265
238 239 237 234 235 239 243 244 245 244 245 244 242 241 239 239 235 234 233 234 235 235 234 234 234 233 234 237 239 240 241 241 239 241 244 244 246 248 254 258 261 262 264 266
239 239 238 234 237 242 245 246 244 243 242 240 240 240 239 238 238 236 235 236 237 238 239 238 239 238 238 240 239 240 242 243 243 243 244 246 247 249 255 260 260 263 268 270
239 239 237 236 241 245 246 244 242 242 240 239 239 241 241 241 242 242 242 244 244 242 241 240 241 241 240 241 240 241 243 243 244 244 245 248 249 251 255 259 262 266 270 272
241 242 240 235 238 243 244 244 244 243 240 239 242 245 246 246 244 244 245 245 244 243 242 242 243 242 241 240 240 242 244 244 243 244 247 248 250 253 258 261 264 269 272 274
238 237 238 238 239 240 242 244 245 246 244 243 244 244 247 249 248 247 245 244 244 245 243 241 245 246 244 242 242 242 244 246 246 248 248 249 252 256 258 262 266 270 274 275
239 237 238 238 239 242 245 245 245 246 246 246 245 246 247 248 248 248 246 245 246 246 246 245 245 247 247 248 246 245 245 245 247 248 249 250 254 256 258 261 265 270 274 276
239 240 240 240 239 241 245 245 245 247 248 248 248 249 252 252 249 247 246 245 246 247 248 248 250 251 251 250 250 249 248 248 249 250 251 250 253 256 259 260 264 269 274 278
240 241 242 241 239 240 243 243 242 245 247 248 248 251 254 253 251 249 249 248 247 249 250 251 253 254 254 252 252 252 251 253 254 254 254 255 255 257 259 262 265 271 275 278
238 238 239 240 239 241 242 242 243 246 246 248 251 252 254 253 252 253 254 251 248 249 252 253 254 254 255 254 252 250 252 254 257 259 259 260 260 260 261 264 269 274 277 279
235 236 237 238 238 241 244 245 244 245 246 248 252 254 254 253 252 253 254 253 252 252 254 254 253 254 255 255 252 251 253 255 259 261 262 264 264 264 264 266 271 275 278 280
235 236 237 237 237 240 244 246 245 244 244 246 250 253 253 253 253 253 254 254 254 253 253 253 253 255 255 255 256 257 258 258 260 261 262 263 265 267 268 269 272 275 278 280
237 237 237 238 239 240 244 246 246 246 245 246 248 250 253 254 255 254 254 254 255 254 255 256 256 255 255 257 261 262 262 261 261 263 264 266 267 268 269 272 274 277 280 282
237 236 236 238 238 240 243 246 247 247 247 247 246 248 251 253 254 255 255 256 255 255 257 258 258 259 260 262 263 264 265 264 263 263 265 268 269 270 271 274 276 278 281 282
237 237 237 237 239 242 244 245 246 247 247 248 248 249 251 251 252 254 255 257 257 257 259 258 259 261 263 263 263 264 265 266 265 266 268 270 271 272 273 275 277 279 281 283
236 237 237 238 240 242 243 244 244 246 248 249 250 250 251 252 253 254 255 257 257 257 260 262 262 263 264 264 264 265 266 267 268 269 271 272 273 274 275 277 279 281 282 284
237 237 237 238 240 240 241 243 244 245 247 248 248 249 251 250 251 253 255 257 257 259 262 264 265 266 266 266 266 266 267 269 271 272 273 274 275 276 277 278 280 282 284 285
238 238 237 238 239 238 239 241 242 243 244 245 247 248 249 249 250 251 254 256 258 261 263 265 267 268 266 266 265 266 269 271 273 274 275 276 277 278 279 280 281 283 285 286
238 238 238 238 238 237 236 238 241 242 242 244 246 248 248 249 251 253 255 257 259 260 262 265 267 268 268 266 265 267 270 272 274 275 275 276 278 279 280 282 284 285 286 287
237 238 238 238 238 236 236 239 241 241 242 245 247 248 249 250 251 253 256 258 259 261 262 264 265 266 267 268 270 271 273 274 275 276 277 278 279 281 282 284 285 286 287 288
237 238 238 237 237 236 237 239 241 242 245 246 246 247 249 249 251 254 258 259 261 261 262 264 264 266 268 270 272 273 274 275 276 277 279 280 281 282 283 285 286 286 287 288
236 236 237 239 239 238 238 240 242 244 246 246 247 248 249 250 251 254 258 260 261 262 263 264 265 267 269 270 271 272 273 274 276 277 279 280 281 282 284 285 286 288 288 289
237 237 238 239 240 240 240 242 243 245 244 245 247 249 250 252 253 255 258 261 263 264 264 265 266 267 269 270 271 273 274 276 277 278 279 281 282 284 285 286 288 289 289 291
Height
5805 5806 5807 5807 5808 5809 5810 5811 5812 5813 5814 5815 5816 5817 5818 5819 5820 5821 5822 5823 5824 5826 5828 5830 5832 5834 5836 5838 5841 5842 5844 5846 5847 5849 5850 5852 5853 5853 5854 5854 5855 5855 5855 5855
5801 5802 5803 5804 5805 5805 5806 5808 5809 5810 5811 5812 5812 5813 5815 5816 5817 5818 5819 5821 5822 5824 5825 5827 5829 5831 5833 5835 5837 5839 5840 5842 5844 5845 5847 5848 5849 5850 5850 5851 5851 5851 5851 5852
5797 5798 5799 5800 5802 5802 5803 5804 5806 5807 5809 5809 5809 5810 5812 5813 5814 5815 5817 5818 5820 5821 5823 5824 5826 5828 5829 5831 5833 5835 5836 5838 5840 5841 5843 5844 5845 5846 5846 5847 5847 5847 5848 5848
5792 5794 5795 5800 5799 5799 5800 5801 5802 5803 5804 5805 5806 5807 5808 5810 5811 5813 5814 5815 5817 5818 5820 5821 5823 5824 5826 5828 5829 5831 5832 5834 5836 5837 5839 5840 5841 5842 5843 5843 5843 5843 5843 5843
5788 5789 5791 5794 5795 5795 5796 5797 5798 5799 5800 5801 5802 5804 5805 5807 5808 5809 5810 5811 5813 5814 5816 5818 5819 5821 5822 5824 5825 5827 5828 5830 5831 5833 5834 5836 5837 5838 5838 5839 5839 5839 5839 5839
5784 5785 5787 5791 5791 5792 5793 5793 5795 5796 5797 5798 5799 5801 5803 5804 5804 5805 5806 5808 5809 5810 5812 5814 5815 5817 5818 5819 5821 5823 5824 5825 5827 5828 5830 5831 5832 5833 5834 5834 5834 5834 5834 5834
5779 5780 5783 5786 5787 5788 5791 5792 5792 5792 5793 5795 5796 5798 5799 5800 5801 5802 5803 5804 5805 5807 5808 5809 5811 5812 5814 5815 5817 5819 5820 5821 5823 5824 5825 5826 5828 5829 5830 5830 5830 5830 5830 5830
5775 5776 5781 5782 5783 5785 5786 5787 5788 5788 5790 5791 5793 5794 5795 5796 5797 5798 5799 5800 5801 5803 5804 5805 5807 5808 5809 5811 5813 5814 5815 5817 5818 5820 5821 5822 5823 5824 5825 5825 5825 5825 5825 5825
5772 5775 5776 5777 5778 5780 5781 5782 5783 5784 5786 5787 5788 5790 5791 5792 5793 5794 5795 5796 5797 5798 5800 5801 5802 5804 5805 5806 5808 5809 5811 5812 5813 5815 5816 5817 5818 5819 5820 5820 5820 5820 5820 5820
5766 5768 5770 5772 5773 5775 5776 5778 5779 5780 5782 5783 5784 5786 5787 5788 5789 5790 5791 5792 5793 5794 5795 5796 5797 5799 5800 5801 5803 5804 5806 5807 5808 5810 5811 5812 5813 5814 5814 5815 5815 5815 5815 5814
5761 5763 5765 5767 5768 5770 5772 5773 5774 5776 5777 5779 5780 5781 5782 5783 5784 5785 5786 5787 5788 5789 5790 5792 5793 5794 5795 5796 5798 5799 5800 5802 5803 5804 5805 5806 5808 5809 5809 5810 5810 5810 5809 5809
5755 5758 5760 5762 5764 5766 5767 5769 5770 5771 5773 5774 5775 5776 5777 5778 5779 5780 5781 5782 5783 5784 5785 5787 5788 5788 5790 5791 5792 5793 5795 5796 5797 5798 5799 5800 5802 5803 5803 5804 5804 5804 5803 5802
5749 5752 5754 5756 5758 5760 5762 5764 5765 5767 5768 5770 5771 5772 5772 5773 5774 5775 5776 5777 5778 5779 5780 5781 5782 5783 5784 5785 5786 5788 5789 5790 5791 5792 5793 5794 5795 5796 5797 5797 5797 5797 5796 5795
5742 5745 5747 5750 5753 5755 5757 5758 5760 5762 5763 5765 5766 5767 5767 5768 5769 5770 5771 5772 5773 5774 5775 5776 5777 5778 5779 5779 5780 5782 5783 5784 5785 5786 5787 5788 5789 5789 5790 5791 5791 5790 5789 5788
5735 5738 5741 5744 5746 5749 5751 5753 5755 5757 5758 5759 5761 5762 5762 5763 5764 5765 5766 5767 5768 5769 5770 5771 5772 5773 5773 5774 5775 5776 5778 5779 5779 5780 5781 5781 5782 5782 5783 5783 5783 5783 5782 5781
5729 5731 5734 5737 5740 5743 5745 5747 5749 5751 5752 5754 5755 5756 5757 5758 5759 5760 5760 5762 5763 5764 5764 5765 5766 5767 5768 5769 5770 5771 5771 5772 5773 5774 5774 5775 5775 5776 5776 5776 5775 5775 5774 5773
5722 5724 5728 5730 5733 5736 5739 5741 5743 5745 5746 5748 5749 5750 5752 5753 5754 5755 5755 5756 5757 5758 5759 5760 5760 5761 5762 5763 5764 5764 5765 5766 5766 5767 5767 5768 5768 5768 5768 5768 5767 5767 5766 5764
5714 5717 5720 5723 5726 5729 5732 5734 5736 5738 5740 5741 5742 5744 5746 5747 5748 5749 5750 5750 5751 5752 5753 5754 5754 5755 5756 5757 5757 5758 5758 5759 5759 5760 5760 5761 5761 5760 5760 5760 5759 5758 5757 5756
5706 5710 5713 5716 5719 5722 5724 5727 5729 5731 5732 5734 5736 5738 5739 5741 5742 5743 5744 5745 5746 5746 5747 5748 5748 5749 5750 5750 5751 5751 5752 5752 5753 5753 5753 5753 5753 5752 5752 5751 5751 5750 5748 5747
5699 5702 5705 5708 5711 5714 5717 5719 5721 5723 5725 5727 5729 5731 5732 5734 5735 5736 5738 5739 5740 5740 5741 5741 5742 5743 5743 5743 5744 5744 5745 5745 5745 5745 5745 5745 5745 5744 5743 5743 5742 5741 5739 5737
5691 5694 5697 5700 5703 5706 5709 5711 5713 5715 5717 5719 5721 5723 5725 5726 5728 5729 5731 5732 5733 5734 5735 5735 5735 5736 5736 5736 5737 5737 5737 5737 5737 5737 5737 5736 5736 5735 5734 5734 5732 5731 5729 5728
5684 5687 5690 5693 5696 5699 5701 5704 5706 5708 5710 5712 5714 5715 5717 5719 5721 5722 5723 5725 5726 5727 5727 5728 5728 5728 5729 5729 5729 5729 5729 5729 5729 5729 5728 5728 5727 5726 5725 5724 5723 5721 5719 5717
5676 5679 5682 5686 5688 5691 5694 5696 5698 5700 5702 5704 5706 5708 5710 5711 5713 5714 5716 5717 5718 5719 5720 5720 5720 5721 5721 5721 5721 5721 5721 5721 5721 5720 5720 5719 5718 5717 5716 5714 5713 5711 5709 5707
5668 5671 5674 5677 5680 5683 5686 5688 5690 5692 5694 5697 5698 5700 5702 5704 5705 5706 5707 5708 5709 5710 5711 5712 5712 5712 5713 5713 5713 5713 5712 5712 5712 5711 5711 5710 5709 5707 5706 5704 5703 5701 5699 5696
5660 5663 5666 5669 5672 5675 5678 5680 5682 5684 5686 5688 5690 5692 5694 5695 5697 5698 5699 5700 5701 5702 5702 5703 5703 5704 5704 5704 5704 5704 5703 5703 5702 5702 5701 5700 5699 5697 5696 5694 5692 5690 5688 5685
5652 5655 5658 5661 5664 5667 5669 5672 5674 5676 5678 5680 5682 5684 5685 5687 5688 5689 5691 5692 5692 5693 5694 5694 5694 5695 5695 5695 5694 5694 5694 5693 5693 5692 5691 5690 5688 5687 5685 5683 5681 5679 5677 5674
5644 5647 5650 5653 5656 5658 5661 5663 5666 5668 5670 5672 5674 5675 5677 5678 5679 5681 5682 5683 5683 5684 5684 5685 5685 5685 5685 5685 5685 5684 5684 5683 5683 5682 5681 5679 5678 5676 5675 5673 5671 5668 5666 5663